[[{"header":{"parameterUnit":"m.s-1","parameterCategory":1,"la1":30.2991,"la2":30.254,"lo1":-89.0895,"lo2":-89.0444,"dy":0.0017,"dx":0.0017,"nx":28,"ny":28,"refTime":"2023-09-20T09:00:00:Z","depth":0,"parameterNumber":2,"parameterNumberName":"U-component_of_WINDS"},"data":[0,0,0,0,0,0,0,0,0,0,0,0,0,0,0,0,0,0,0,0,0,0,0,0,0,0,0,0,0,0,0,0,0,0,0,0,0,0,0,0,0,0,0,0,0,0,0,0,0,0,0,0,0,0,0,0,0,0,-6.0144,-6.0145,0,-6.0279,-6.0281,-6.0282,-6.0161,-6.0156,-6.0151,-6.0147,-6.0291,-6.0299,-6.0308,0,0,0,0,0,0,0,0,0,0,0,0,0,-5.9788,-5.9796,-6.0144,-6.0146,-6.0147,-6.0279,-6.0281,-6.0283,-6.0162,-6.0156,-6.015,-6.0144,-6.0288,-6.0298,-6.0309,0,0,0,0,0,0,0,0,0,0,0,0,0,-5.9935,-5.9798,-6.0144,-6.0103,-6.01,-6.0279,-6.0281,-6.0283,-6.0163,-6.0156,-6.0148,-6.0142,-6.0285,-6.0297,-6.031,-6.0537,0,0,-6.0349,-6.0354,0,0,0,0,0,0,0,0,-5.9927,-5.9949,-6.0107,-6.0106,-6.0104,-6.0195,-6.0208,-6.0369,-6.0165,-6.014,-6.0146,-6.0138,-6.0266,-6.028,-6.0321,-6.0544,-6.055,-6.035,-6.0358,-6.0363,-6.0367,0,0,0,0,0,0,0,-5.9917,-5.9942,-6.0197,-6.011,-6.0108,-6.008,-6.0093,-6.0238,-6.0243,-6.0141,-6.0133,-6.015,-6.0263,-6.031,-6.0324,-6.0552,-6.035,-6.0361,-6.0369,-6.0374,-6.097,-6.0978,0,0,0,0,0,0,-5.991,-5.9934,-6.0193,-6.0201,-5.9995,-6.0093,-6.0107,-6.0174,-6.0241,-6.0244,-6.0156,-6.0144,-6.0291,-6.0309,-6.0329,-6.0599,-6.0363,-6.0375,-6.0382,-6.0962,-6.0972,-6.0981,0,0,0,0,0,0,-5.9903,-5.9935,-6.0188,-6.0066,-6.0096,-6.0107,-6.0183,-6.018,-6.0226,-6.0252,-6.0253,-6.0202,-6.0286,-6.0311,-6.0486,-6.0603,-6.0381,-6.0392,-6.0952,-6.0965,-6.0976,-6.1143,0,0,0,0,0,0,-5.9893,-5.9933,-6.0017,-6.0068,-6.0103,-6.0341,-6.019,-6.0188,-6.0247,-6.0233,-6.0295,-6.0299,-6.0282,-6.0468,-6.0499,-6.0616,-6.0402,-6.0942,-6.0958,-6.0972,-6.1127,-6.1159,-6.1187,0,0,0,0,0,-5.9881,-6.006,-6.0022,-6.0054,-6.0208,-6.0348,-6.0368,-6.0344,-6.0257,-6.0344,-6.0361,-6.0297,-6.0585,-6.0487,-6.0521,-6.0644,-6.0934,-6.0953,-6.0971,-6.1113,-6.1153,-6.1186,0,0,0,0,0,0,-6.0023,-6.0065,-6.0024,-6.0224,-6.0283,-6.0327,-6.0435,-6.0386,-6.0472,-6.0455,-6.0423,-6.0439,-6.0624,-6.0652,-6.0541,-6.0868,-6.0746,-6.0772,-6.0843,-6.0881,-6.091,-6.0899,-6.0413,0,0,0,0,0,-6.0077,-6.0185,-6.0217,-6.0391,-6.0422,-6.0424,-6.0484,-6.0461,-6.0521,-6.0546,-6.0576,-6.064,-6.0744,-6.0814,-6.0912,-6.1131,-6.1144,-6.1233,-6.1263,-6.1287,-6.131,-6.143,-6.147,-6.1041,-6.1041,-6.1041,0,0,-6.0191,-6.0227,-6.0298,-6.042,-6.0463,-6.0578,-6.0446,-6.0572,-6.0658,-6.0566,-6.0732,-6.0758,-6.0827,-6.1025,-6.1114,-6.1054,-6.1432,-6.1311,-6.133,-6.134,-6.1453,-6.1493,-6.153,-6.1054,-6.1052,-6.105,0,0,-6.0456,-6.0494,-6.0643,-6.0689,-6.0756,-6.0756,-6.0792,-6.0845,-6.0857,-6.1024,-6.0958,-6.1061,-6.1242,-6.1294,-6.1344,-6.1633,-6.1578,-6.1666,-6.1823,-6.194,-6.1973,-6.2003,-6.2107,-6.2144,-6.1689,-6.1689,-6.169,0,-6.0589,-6.0756,-6.0726,-6.0858,-6.0915,-6.0836,-6.0988,-6.1035,-6.1132,-6.1174,-6.1105,-6.1332,-6.1373,-6.1583,-6.1653,-6.1697,-6.1739,-6.1658,-6.1971,-6.2,-6.2028,-6.2126,-6.2165,-6.17,-6.1699,-6.1697,-6.1696,0,-6.0917,-6.1035,-6.1148,-6.1241,-6.1311,-6.1453,-6.1446,-6.1522,-6.1493,-6.1502,-6.1675,-6.1721,-6.1828,-6.1876,-6.185,-6.2084,-6.2045,-6.1975,-6.1851,-6.2079,-6.2171,-6.2209,-6.1714,-6.1711,-6.1708,-6.1705,0,0,-6.1273,-6.1349,-6.1391,-6.1433,-6.1502,-6.1594,-6.1734,-6.1836,-6.1902,-6.1973,-6.209,-6.2246,-6.2182,-6.2239,-6.2219,-6.2322,-6.2549,-6.2238,-6.224,-6.2294,-6.2811,-6.2863,-6.2907,-6.2513,-6.252,-6.2526,-6.2805,0,-6.154,-6.1779,-6.1758,-6.1986,-6.2096,-6.2025,-6.2147,-6.2204,-6.2217,-6.2314,-6.2329,-6.2441,-6.2347,-6.2381,-6.248,-6.25,-6.2652,-6.248,-6.2624,-6.2629,-6.2607,-6.2955,-6.301,-6.3271,-6.2841,-6.2847,-6.2852,0,-6.1883,-6.1964,-6.2203,-6.2257,-6.2302,-6.2412,-6.2506,-6.2599,-6.2664,-6.2666,-6.2732,-6.2695,-6.2838,-6.2713,-6.2912,-6.2795,-6.2853,-6.2873,-6.2883,-6.2894,-6.2753,-6.2976,-6.3354,-6.3393,-6.2908,-6.2903,-6.2899,0,-6.2119,-6.2288,-6.2453,-6.2491,-6.2559,-6.2638,-6.267,-6.2727,-6.2791,-6.2875,-6.2916,-6.3016,-6.3071,-6.3151,-6.3143,-6.3052,-6.3346,-6.3219,-6.3353,-6.3354,-6.3417,-6.3413,-6.3809,-6.3456,-6.3455,-6.3455,-6.3454,0,-6.2419,-6.2568,-6.2559,-6.2661,-6.2827,-6.2803,-6.2968,-6.2992,-6.3044,-6.3151,-6.3097,-6.3199,-6.3182,-6.3286,-6.3281,-6.3447,-6.3473,-6.348,-6.3477,-6.3484,-6.3484,-6.3521,-6.3503,-6.3465,-6.3463,-6.3461,-6.3459,0,-6.2708,-6.2709,-6.2884,-6.2934,-6.295,-6.3071,-6.3114,-6.3212,-6.3221,-6.3357,-6.3388,-6.3404,-6.3523,-6.3523,-6.3659,-6.3656,-6.386,-6.3836,-6.3837,-6.3832,-6.3966,-6.3953,-6.44,-6.4458,-6.4068,-6.4071,-6.4075,0,-6.2899,-6.3012,-6.3074,-6.3141,-6.3178,-6.3287,-6.3352,-6.3334,-6.3404,-6.3488,-6.3577,-6.369,-6.3779,-6.3974,-6.3999,-6.4104,-6.4082,-6.4231,-6.4097,-6.4102,-6.4084,-6.4077,-6.4089,-6.4257,-6.4262,-6.4265,-6.4268,0,-6.3238,-6.3233,-6.3327,-6.3424,-6.3503,-6.3578,-6.3648,-6.3706,-6.3697,-6.3779,-6.3899,-6.3969,-6.4108,-6.4222,-6.4324,-6.436,-6.4314,-6.431,-6.4347,-6.4355,-6.4351,-6.4355,-6.3908,-6.43,-6.4297,-6.4294,-6.4292,-6.4291,-6.3484,-6.3581,-6.3641,-6.3749,-6.3799,-6.3866,-6.396,-6.3982,-6.4081,-6.4191,-6.4176,-6.4311,-6.4376,-6.4507,-6.4553,-6.466,-6.4608,-6.4661,-6.4674,-6.4687,-6.4702,-6.4335,-6.4678,-6.4677,-6.4677,-6.4676,-6.4675,0,-6.3819,-6.3855,-6.3955,-6.4053,-6.4139,-6.4087,-6.4162,-6.4238,-6.4357,-6.4421,-6.451,-6.465,-6.4761,-6.4796,-6.4905,-6.4984,-6.4966,-6.5013,-6.5006,-6.5016,-6.4742,-6.4699,-6.5026,-6.5026,-6.5026,-6.5026,-6.5026,-6.5025,-6.4004,-6.4166,-6.417,-6.4358,-6.4393,-6.4522,-6.457,-6.4633,-6.4683,-6.4841,-6.4933,-6.4954,-6.5008,-6.512,-6.5221,-6.5229,-6.5272,-6.5328,-6.5327,-6.507,-6.5035,-6.5001,-6.4961,-6.5337,-6.5338,-6.5592,-6.5594,-6.5596]},{"header":{"parameterUnit":"m.s-1","parameterCategory":1,"la1":30.2991,"la2":30.254,"lo1":-89.0895,"lo2":-89.0444,"dy":0.0017,"dx":0.0017,"nx":28,"ny":28,"refTime":"2023-09-20T09:00:00:Z","depth":0,"parameterNumber":3,"parameterNumberName":"V-component_of_WINDS"},"data":[0,0,0,0,0,0,0,0,0,0,0,0,0,0,0,0,0,0,0,0,0,0,0,0,0,0,0,0,0,0,0,0,0,0,0,0,0,0,0,0,0,0,0,0,0,0,0,0,0,0,0,0,0,0,0,0,0,0,2.385,2.385,0,2.381,2.3809,2.3809,2.3845,2.3846,2.3848,2.3849,2.3796,2.3793,2.3791,0,0,0,0,0,0,0,0,0,0,0,0,0,2.3949,2.3947,2.385,2.385,2.3849,2.381,2.3809,2.3809,2.3844,2.3846,2.3848,2.385,2.3797,2.3794,2.379,0,0,0,0,0,0,0,0,0,0,0,0,0,2.3907,2.3947,2.385,2.3863,2.3863,2.381,2.3809,2.3808,2.3844,2.3846,2.3848,2.3851,2.3798,2.3794,2.379,2.3719,0,0,2.3777,2.3775,0,0,0,0,0,0,0,0,2.3909,2.3903,2.3861,2.3862,2.3862,2.3835,2.3825,2.3778,2.3843,2.3851,2.3849,2.3852,2.3806,2.3802,2.3789,2.3716,2.3714,2.3777,2.3774,2.3772,2.3771,0,0,0,0,0,0,0,2.3912,2.3905,2.3834,2.386,2.3861,2.3867,2.3864,2.3816,2.3816,2.385,2.3853,2.3848,2.3807,2.3793,2.3788,2.3713,2.3777,2.3773,2.377,2.3769,2.358,2.3578,0,0,0,0,0,0,2.3915,2.3907,2.3835,2.3833,2.3892,2.3863,2.386,2.3841,2.3817,2.3816,2.3846,2.385,2.3799,2.3793,2.3786,2.37,2.3772,2.3768,2.3766,2.3582,2.3579,2.3577,0,0,0,0,0,0,2.3917,2.3909,2.3837,2.3871,2.3862,2.3859,2.3838,2.3839,2.3825,2.3814,2.3813,2.3832,2.38,2.3792,2.3736,2.3699,2.3767,2.3763,2.3585,2.3581,2.3578,2.3528,0,0,0,0,0,0,2.392,2.3909,2.3884,2.387,2.386,2.379,2.3836,2.3837,2.3819,2.3823,2.38,2.3799,2.3801,2.3742,2.3732,2.3694,2.3759,2.3589,2.3584,2.3579,2.3533,2.3523,2.3515,0,0,0,0,0,2.3923,2.3869,2.3882,2.3873,2.3829,2.3788,2.3782,2.3789,2.3816,2.3789,2.3782,2.3799,2.3706,2.3736,2.3725,2.3685,2.3591,2.3585,2.358,2.3537,2.3525,2.3515,0,0,0,0,0,0,2.3874,2.3867,2.3882,2.3822,2.3806,2.3794,2.376,2.3776,2.3749,2.3753,2.3761,2.3755,2.3696,2.3686,2.372,2.3615,2.3652,2.3644,2.3623,2.3612,2.3603,2.3605,2.3756,0,0,0,0,0,2.3857,2.3827,2.3822,2.3769,2.3761,2.3762,2.3744,2.3752,2.3733,2.3725,2.3714,2.3693,2.3659,2.3635,2.3603,2.3533,2.3527,2.3501,2.3492,2.3484,2.3475,2.3436,2.3423,2.3558,2.3558,2.3558,0,0,2.3819,2.3812,2.3792,2.3759,2.3747,2.3713,2.3755,2.3717,2.3691,2.3718,2.3665,2.3657,2.3633,2.357,2.3541,2.3559,2.3438,2.3477,2.3471,2.3466,2.3429,2.3416,2.3405,2.3554,2.3555,2.3556,0,0,2.3733,2.3726,2.3681,2.367,2.3653,2.3655,2.3645,2.3631,2.3628,2.3576,2.3596,2.3564,2.3505,2.3487,2.347,2.3381,2.3395,2.337,2.332,2.3282,2.3272,2.3262,2.3227,2.3215,2.3363,2.3363,2.3363,0,2.3687,2.3639,2.3655,2.3616,2.36,2.3629,2.3582,2.3569,2.3541,2.3528,2.355,2.3478,2.3464,2.3396,2.3375,2.3361,2.3347,2.3371,2.3273,2.3263,2.3255,2.3221,2.3209,2.336,2.336,2.336,2.3361,0,2.3583,2.355,2.3515,2.3492,2.3472,2.3429,2.3436,2.3414,2.3425,2.3423,2.3369,2.3355,2.332,2.3306,2.3314,2.3239,2.325,2.3273,2.3309,2.3238,2.3207,2.3195,2.3355,2.3356,2.3357,2.3358,0,0,2.3459,2.3449,2.3435,2.3425,2.3411,2.3383,2.3342,2.3312,2.3292,2.3272,2.3235,2.3187,2.3208,2.3189,2.3196,2.3163,2.309,2.3189,2.3188,2.3168,2.3004,2.2984,2.297,2.3102,2.31,2.3098,2.3005,0,2.337,2.3301,2.3316,2.3246,2.3214,2.3243,2.3206,2.3192,2.319,2.3161,2.3158,2.3123,2.3155,2.3143,2.3113,2.3106,2.3057,2.3113,2.3063,2.3061,2.3064,2.2954,2.2933,2.2846,2.2993,2.2991,2.299,0,2.3256,2.3237,2.3166,2.3157,2.3144,2.3111,2.3085,2.3059,2.3042,2.3043,2.3024,2.3038,2.2993,2.3035,2.2971,2.3009,2.299,2.2984,2.2981,2.2973,2.3018,2.2939,2.2819,2.2804,2.2971,2.2973,2.2974,0,2.317,2.3126,2.3078,2.3068,2.3058,2.3034,2.3028,2.3015,2.2996,2.2973,2.296,2.2931,2.2914,2.2889,2.2894,2.2924,2.2828,2.287,2.2824,2.2824,2.2799,2.2799,2.2669,2.2793,2.2793,2.2794,2.2794,0,2.3067,2.3021,2.3039,2.3008,2.2957,2.2975,2.2923,2.292,2.2908,2.2875,2.2898,2.2866,2.2877,2.2844,2.2847,2.2793,2.2786,2.2783,2.2783,2.2778,2.2778,2.2762,2.2767,2.279,2.2791,2.2791,2.2792,0,2.2959,2.297,2.2918,2.2915,2.2913,2.2875,2.287,2.284,2.2843,2.2802,2.2792,2.2794,2.2758,2.2762,2.272,2.2722,2.2654,2.2664,2.266,2.2661,2.2613,2.2616,2.2465,2.2445,2.2585,2.2584,2.2583,0,2.289,2.2856,2.2851,2.2833,2.2826,2.2796,2.2779,2.2795,2.2775,2.2755,2.2727,2.2694,2.2667,2.2607,2.2603,2.2571,2.2577,2.2527,2.2572,2.2568,2.2572,2.2572,2.2568,2.2516,2.2514,2.2513,2.2512,0,2.2766,2.2774,2.275,2.2728,2.2708,2.269,2.2675,2.2658,2.2672,2.2648,2.2614,2.2594,2.2554,2.2519,2.2489,2.2479,2.2496,2.2499,2.2486,2.2478,2.2476,2.2473,2.2631,2.2501,2.2502,2.2503,2.2503,2.2504,2.2673,2.2645,2.2637,2.2609,2.2601,2.2586,2.2558,2.2559,2.2532,2.2503,2.2514,2.2473,2.2458,2.2421,2.2408,2.2375,2.2393,2.2374,2.2369,2.2363,2.2356,2.2486,2.237,2.237,2.237,2.2371,2.2371,0,2.2548,2.2546,2.2521,2.25,2.2478,2.2503,2.2487,2.2466,2.2432,2.2418,2.2394,2.2353,2.2321,2.2315,2.2284,2.2258,2.2264,2.2248,2.2248,2.2245,2.2344,2.2357,2.2243,2.2243,2.2243,2.2243,2.2243,2.2243,2.2479,2.2432,2.2439,2.2387,2.2384,2.2348,2.2337,2.2323,2.2312,2.2267,2.2242,2.2241,2.223,2.2198,2.2168,2.2168,2.2153,2.2133,2.2134,2.2225,2.2238,2.225,2.2262,2.213,2.213,2.2037,2.2037,2.2036]}]]